Showing default

BLACKJACK ACES-1, 56956

Orbit data source: Space-Track

BLACKJACK ACES-1, 56956 is a payload satellite owned by DARPA (US) in SSO that was launched on Mon, 12 Jun 2023 UTC via an FALCON 9 launch vehicle from the Air Force Western Test Range (AFWTR). Payload-class satellites include a variety of spacecraft equipped with specific instruments for various scientific and technological missions. These include communications satellites like Starlink; space stations such as the ISS; scientific satellites like the Hubble; Earth observation satellites from companies like Planet Labs, Umbra, and HawkEye 360; GPS; miniature CubeSats for education and research; and military/defense satellites.

Loading next visibility...
Identifier
56956, 2023-084AA
Orbit
SSO
Country
Flag of USUS
Related business
Manufacturer
BLCAN/LMSS
Mission
Operational Defense Communications
Bus & Motor
X-SAT, Unknown motor
Mass
~200 kg wet, ~200 kg dry
Launch date (UTC)
2023-06-12 (2 years ago)
Launch vehicle
FALCON 9
Launch site
Air Force Western Test Range (AFWTR)
Object type
Payload
Rocket body
Debris
Shape & HBR
Box, 3.6 m
Radar Cross Section
0.875 m², Large (>1 m²)

Expand to show TLE details & history
Last TLE update: 8 hours ago

TLE from 8 hours ago
0 BLACKJACK ACES-1
1 56956U 23084AA  25292.92084181  .00020782  00000-0  92399-3 0  9995
2 56956  97.5898  61.0441 0007910  98.3769 261.8363 15.21508257 80399
Epoch: 2025-10-19T22:06Z
TLE epoch observation values (Epoch: 2025-10-19T22:06:00.732Z)
Latitude
-0.00006°
Longitude
60.91048°
Altitude
505.155 km
Speed
7.611 km/s
True Right ascension
04h 04m 10s
True Declination
0° 00' 00"
Sunlit
Object was in full shadow at epoch
Visualization orbit readout
Latitude
Unknown
Longitude
Unknown
Altitude
Unknown
Speed
Unknown
Apparent Right ascension
Unknown
Apparent Declination
Unknown
Sunlit
N/A
Visualization observer readout
Local Sidereal Time
00:38:15
Azimuth
Unknown
Elevation
Unknown
Doppler factor
Unknown
Orbital elements
Apogee altitude
503.702 km
Perigee altitude
492.823 km
Semi-major axis
6,876.399 km
Eccentricity
0.00079
Inclination
97.5898°
RAAN
61.0441°
Arg. of periapsis
98.3769°
True anomaly
261.74659°
Mean anomaly
261.8363°
Eccentric anomaly
261.79144°
Mean motion
3.80629 °/min
Orbital period
94.58 mins
BSTAR
0.00092399
Loading maneuver chart data...
Computing Atmospheric mass density...

Documentation

Showing up to 5 results
|